Change the Weather History Date:

Tuesday, September 24, 2013

  Actual Average Record
Temperature  
Mean Temperature 50 °F -  
Max Temperature 53 °F 59 °F 77 °F (1999)
Min Temperature 46 °F 39 °F 35 °F (2004)
Degree Days  
Heating Degree Days 16    
Moisture  
Dew Point 45 °F    
Average Humidity 81    
Maximum Humidity 94    
Minimum Humidity 68    
Precipitation  
Precipitation 0.01 in 0.13 in - ()
Sea Level Pressure  
Sea Level Pressure 29.74 in    
Wind  
Wind Speed 10 mph ()    
Max Wind Speed 17 mph    
Max Gust Speed 21 mph    
Visibility 15.0 miles    
Events Rain    
Averages and records for this station are not official NWS values.
T = Trace of Precipitation, MM = Missing Value Source: Averaged Metar Reports

Daily Weather History Graph

Daily Weather History Graph

Search for Another Location

Airport or City:

Trip Planner

Search our weather history database for the weather conditions in past years. The results will help you decide how hot, cold, wet, or windy it might be!

Date:

Astronomy

Sep. 24, 2013 Rise Set
Actual Time 7:09 AM ADT 7:12 PM ADT
Civil Twilight 6:40 AM ADT 7:42 PM ADT
Nautical Twilight 6:05 AM ADT 8:16 PM ADT
Astronomical Twilight 5:30 AM ADT 8:51 PM ADT
Moon 10:13 PM ADT (9/24) 12:33 PM ADT (9/24)
Length of Visible Light 13h 02m
Length of Day
12h 03m
Waning Gibbous, 73% of the Moon is Illuminated
Sep 24
Waning Gibbous
Sep 27
Last Quarter
Oct 4
New
Oct 11
First Quarter
Oct 18
Full

Hourly Weather History & Observations

Time (ADT) Temp. Windchill Dew Point Humidity Pressure Visibility Wind Dir Wind Speed Gust Speed Precip Events Conditions
12:00 AM 51.8 °F - 42.8 °F 71% 29.74 in 15.0 mi West 13.8 mph 20.7 mph N/A   Overcast
1:00 AM 50.0 °F - 42.8 °F 76% 29.74 in 15.0 mi West 13.8 mph - N/A   Overcast
2:00 AM 50.0 °F - 42.8 °F 76% 29.74 in 15.0 mi West 12.7 mph 19.6 mph N/A   Overcast
3:00 AM 50 °F - 43 °F 69% 29.73 in 15 mi West 11.5 mph - -   Overcast
3:00 AM 50.0 °F - 42.8 °F 76% 29.73 in 15.0 mi West 12.7 mph - N/A   Overcast
4:00 AM 50.0 °F - 42.8 °F 76% 29.73 in 15.0 mi WNW 11.5 mph 19.6 mph N/A   Overcast
5:00 AM 50.0 °F - 44.6 °F 82% 29.73 in 15.0 mi West 10.4 mph 17.3 mph N/A   Overcast
5:11 AM - - - N/A% - 15.0 mi West 12.7 mph - N/A Rain Light Rain Showers
5:42 AM - - - N/A% - 15.0 mi West 9.2 mph - N/A   Overcast
6:00 AM 50.0 °F - 42.8 °F 76% 29.73 in 15.0 mi West 11.5 mph - N/A   Overcast
7:00 AM 50.0 °F - 44.6 °F 82% 29.73 in 15.0 mi WSW 9.2 mph - N/A   Overcast
8:00 AM 50.0 °F - 44.6 °F 82% 29.73 in 15.0 mi WSW 11.5 mph - N/A   Overcast
9:00 AM 50 °F - 46 °F 80% 29.74 in 15 mi West 9.2 mph - - Rain Light Rain Showers
9:00 AM 50.0 °F - 46.4 °F 87% 29.73 in 15.0 mi West 11.5 mph - N/A Rain Light Rain Showers
10:00 AM 50.0 °F - 44.6 °F 82% 29.73 in 15.0 mi West 11.5 mph - N/A Rain Light Rain Showers
11:00 AM 51.8 °F - 44.6 °F 76% 29.73 in 15.0 mi West 11.5 mph - N/A Rain Light Rain Showers
11:35 AM - - - N/A% - 15.0 mi West 12.7 mph 18.4 mph N/A   Overcast
12:00 PM 51.8 °F - 44.6 °F 76% 29.74 in 15.0 mi West 15.0 mph - N/A   Overcast
1:00 PM 50.0 °F - 46.4 °F 87% 29.74 in 15.0 mi SW 9.2 mph - N/A   Overcast
2:00 PM 51.8 °F - 44.6 °F 76% 29.73 in 15.0 mi West 13.8 mph 19.6 mph N/A   Overcast
2:17 PM - - - N/A% - 15.0 mi West 16.1 mph - N/A Rain Light Rain Showers
2:42 PM - - - N/A% - 15.0 mi West 12.7 mph 18.4 mph N/A   Overcast
3:00 PM 52 °F - 44 °F 68% 29.74 in 15 mi West 12.7 mph - - Rain Light Rain Showers
3:00 PM 51.8 °F - 44.6 °F 76% 29.74 in 15.0 mi West 12.7 mph - N/A   Overcast
4:00 PM 51.8 °F - 44.6 °F 76% 29.73 in 15.0 mi WSW 11.5 mph - N/A   Overcast
4:07 PM - - - N/A% - 15.0 mi West 17.3 mph - N/A Rain Light Rain Showers
5:00 PM 50.0 °F - 48.2 °F 94% 29.74 in 15.0 mi West 11.5 mph 18.4 mph N/A   Overcast
6:00 PM 48.2 °F - 44.6 °F 87% 29.74 in 15.0 mi West 6.9 mph - N/A Rain Light Rain Showers
7:00 PM 48.2 °F - 46.4 °F 93% 29.75 in 15.0 mi WSW 4.6 mph - N/A Rain Light Rain Showers
7:40 PM - - - N/A% - 15.0 mi WSW 3.5 mph - N/A   Overcast
8:00 PM 48.2 °F - 44.6 °F 87% 29.74 in 15.0 mi SW 4.6 mph - N/A   Overcast
9:00 PM 47 °F - 45 °F 90% 29.75 in 15 mi West 3.5 mph - -   Partly Cloudy
9:00 PM 46.4 °F 44.3 °F 44.6 °F 93% 29.75 in 15.0 mi West 4.6 mph - N/A   Overcast
10:00 PM 46.4 °F - 44.6 °F 93% 29.75 in 15.0 mi South 2.3 mph - N/A   Overcast
11:00 PM 46.4 °F - 44.6 °F 93% 29.75 in 15.0 mi SW 2.3 mph - N/A   Overcast